カタログに戻る

ION SCV-007

運用中通信SSO
NORAD 55060·PAYLOAD·🇮🇹 Italy

打ち上げ Jan 3, 2023 から Cape Canaveral Space Force Station

Loading…

次のパス (今後24時間)

TLE

最新Source: Space-Track

元期: Sep 14, 2026, 10:50 UTC

1 55060U 23001BD  26257.45166019  .00000295  00000-0  48274-4 0  9991
2 55060  97.8916 318.6559 0013396  51.6872 308.5541 14.77618397199431

AllMySatでION SCV-007をリアルタイム追跡

Download on the App Store